Back to catalog

COSMOS 2251 DEB

AliveLEO
NORAD 33822·DEBRIS·🇷🇺 Russia

Launched Jun 16, 1993 from Plesetsk Cosmodrome

Loading…

Next Passes (next 24 hours)

TLE

FreshSource: Space-Track

Epoch: Sep 14, 2026, 21:54 UTC

1 33822U 93036BP  26257.91307275  .00001370  00000-0  65079-3 0  9996
2 33822  74.0657  65.4639 0152512  45.0398 105.9837 14.14422949899578

Track COSMOS 2251 DEB in real time with AllMySat

Download on the App Store